Weather History for Franklin, PA

Change the Weather History Date:

Thursday, October 31, 2013

  Actual Average Record
Temperature  
Mean Temperature 58 °F -  
Max Temperature 64 °F 56 °F 77 °F (1950)
Min Temperature 51 °F 32 °F 19 °F (1988)
Degree Days  
Heating Degree Days 8    
Growing Degree Days 8 (Base 50)    
Moisture  
Dew Point 53 °F    
Average Humidity 85    
Maximum Humidity 94    
Minimum Humidity 68    
Precipitation  
Precipitation 0.60 in - - ()
Sea Level Pressure  
Sea Level Pressure 29.84 in    
Wind  
Wind Speed 12 mph (South)    
Max Wind Speed 24 mph    
Max Gust Speed 33 mph    
Visibility 9 miles    
Events      
Averages and records for this station are not official NWS values.
T = Trace of Precipitation, MM = Missing Value Source: NWS Daily Summary

Daily Weather History Graph

Daily Weather History Graph

Search for Another Location

Airport:

Trip Planner

Search our weather history database for the weather conditions in past years. The results will help you decide how hot, cold, wet, or windy it might be!

Date:

Astronomy

Oct. 31, 2013 Rise Set
Actual Time 7:50 AM EDT 6:15 PM EDT
Civil Twilight 7:21 AM EDT 6:44 PM EDT
Nautical Twilight 6:48 AM EDT 7:16 PM EDT
Astronomical Twilight 6:16 AM EDT 7:48 PM EDT
Moon 4:35 AM EDT (10/31) 4:34 PM EDT (10/31)
Length of Visible Light 11h 22m
Length of Day
10h 25m
Waning Crescent, 10% of the Moon is Illuminated
Oct 31
Waning Crescent
Nov 3
New
Nov 10
First Quarter
Nov 17
Full
Nov 25
Last Quarter

Hourly Weather History & Observations

Time (EDT) Temp. Dew Point Humidity Pressure Visibility Wind Dir Wind Speed Gust Speed Precip Events Conditions
12:15 AM 51.8 °F 44.6 °F 76% 30.11 in 10.0 mi South 5.8 mph - N/A   Overcast
12:35 AM 51.8 °F 46.4 °F 82% 30.09 in 10.0 mi SSE 10.4 mph - N/A   Mostly Cloudy
12:55 AM 51.8 °F 46.4 °F 82% 30.09 in 10.0 mi South 9.2 mph - N/A   Overcast
1:15 AM 53.6 °F 46.4 °F 77% 30.09 in 10.0 mi South 9.2 mph - N/A   Overcast
1:35 AM 53.6 °F 46.4 °F 77% 30.09 in 10.0 mi SSE 8.1 mph - N/A   Overcast
1:55 AM 53.6 °F 48.2 °F 82% 30.07 in 10.0 mi SE 10.4 mph - N/A   Overcast
2:15 AM 53.6 °F 48.2 °F 82% 30.06 in 10.0 mi SSE 10.4 mph - N/A   Overcast
2:35 AM 53.6 °F 48.2 °F 82% 30.05 in 10.0 mi SSE 10.4 mph - N/A   Overcast
2:55 AM 53.6 °F 48.2 °F 82% 30.04 in 10.0 mi SSE 8.1 mph - N/A   Overcast
3:15 AM 53.6 °F 50.0 °F 88% 30.04 in 10.0 mi SSE 10.4 mph - N/A   Overcast
3:35 AM 53.6 °F 50.0 °F 88% 30.02 in 10.0 mi SE 10.4 mph - N/A   Overcast
3:55 AM 53.6 °F 50.0 °F 88% 30.00 in 7.0 mi SE 11.5 mph - N/A   Overcast
4:15 AM 53.6 °F 51.8 °F 94% 29.99 in 7.0 mi SSE 11.5 mph - N/A   Overcast
4:35 AM 53.6 °F 51.8 °F 94% 29.98 in 5.0 mi SSE 12.7 mph - 0.05 in   Overcast
4:55 AM 53.6 °F 51.8 °F 94% 29.98 in 4.0 mi SSE 12.7 mph 17.3 mph 0.08 in   Overcast
5:15 AM 55.4 °F 51.8 °F 88% 29.98 in 5.0 mi South 13.8 mph - 0.02 in   Overcast
5:35 AM 55.4 °F 51.8 °F 88% 29.97 in 5.0 mi SSE 12.7 mph - 0.03 in   Overcast
5:55 AM 55.4 °F 53.6 °F 94% 29.97 in 7.0 mi South 13.8 mph - 0.03 in   Overcast
6:15 AM 57.2 °F 53.6 °F 88% 29.97 in 5.0 mi South 12.7 mph 17.3 mph N/A   Overcast
6:35 AM 57.2 °F 55.4 °F 94% 29.97 in 6.0 mi South 13.8 mph - N/A   Overcast
6:55 AM 57.2 °F 55.4 °F 94% 29.97 in 5.0 mi South 12.7 mph - N/A   Overcast
7:15 AM 57.2 °F 55.4 °F 94% 29.96 in 7.0 mi SSE 9.2 mph - N/A   Overcast
7:35 AM 57.2 °F 55.4 °F 94% 29.96 in 6.0 mi South 8.1 mph - N/A   Overcast
7:55 AM 57.2 °F 55.4 °F 94% 29.96 in 6.0 mi South 9.2 mph - N/A   Overcast
8:15 AM 57.2 °F 55.4 °F 94% 29.96 in 5.0 mi South 11.5 mph - N/A   Overcast
8:35 AM 57.2 °F 55.4 °F 94% 29.96 in 5.0 mi South 10.4 mph - N/A   Overcast
8:55 AM 57.2 °F 55.4 °F 94% 29.96 in 9.0 mi South 9.2 mph - N/A   Overcast
9:15 AM 59.0 °F 55.4 °F 88% 29.95 in 8.0 mi South 11.5 mph - N/A   Overcast
9:35 AM 59.0 °F 55.4 °F 88% 29.95 in 8.0 mi South 9.2 mph - N/A   Mostly Cloudy
9:55 AM 59.0 °F 55.4 °F 88% 29.94 in 10.0 mi South 10.4 mph - N/A   Overcast
10:15 AM 59.0 °F 55.4 °F 88% 29.94 in 8.0 mi South 12.7 mph - N/A   Overcast
10:35 AM 59.0 °F 55.4 °F 88% 29.92 in 9.0 mi South 12.7 mph - N/A   Mostly Cloudy
10:55 AM 60.8 °F 55.4 °F 82% 29.91 in 10.0 mi South 10.4 mph - N/A   Scattered Clouds
11:15 AM 60.8 °F 55.4 °F 82% 29.90 in 10.0 mi South 15.0 mph - N/A   Mostly Cloudy
11:35 AM 62.6 °F 55.4 °F 77% 29.90 in 10.0 mi South 12.7 mph - N/A   Mostly Cloudy
11:55 AM 62.6 °F 57.2 °F 82% 29.88 in 10.0 mi South 16.1 mph 20.7 mph N/A   Partly Cloudy
12:15 PM 62.6 °F 55.4 °F 77% 29.88 in 10.0 mi South 16.1 mph 20.7 mph N/A   Mostly Cloudy
12:35 PM 62.6 °F 55.4 °F 77% 29.87 in 10.0 mi South 13.8 mph - N/A   Overcast
12:55 PM 62.6 °F 55.4 °F 77% 29.85 in 10.0 mi South 12.7 mph 20.7 mph N/A   Overcast
1:15 PM 62.6 °F 55.4 °F 77% 29.84 in 10.0 mi South 16.1 mph - N/A   Mostly Cloudy
1:35 PM 62.6 °F 55.4 °F 77% 29.83 in 10.0 mi South 15.0 mph 20.7 mph N/A   Mostly Cloudy
1:55 PM 64.4 °F 55.4 °F 73% 29.82 in 10.0 mi South 17.3 mph 21.9 mph N/A   Mostly Cloudy
2:15 PM 64.4 °F 53.6 °F 68% 29.81 in 10.0 mi South 12.7 mph - N/A   Overcast
2:35 PM 62.6 °F 53.6 °F 72% 29.81 in 10.0 mi South 13.8 mph - N/A   Overcast
2:55 PM 62.6 °F 53.6 °F 72% 29.80 in 10.0 mi SSW 15.0 mph 20.7 mph N/A   Overcast
3:15 PM 62.6 °F 53.6 °F 72% 29.80 in 10.0 mi South 10.4 mph 18.4 mph N/A   Overcast
3:35 PM 60.8 °F 53.6 °F 77% 29.79 in 10.0 mi South 10.4 mph - 0.01 in   Overcast
3:55 PM 60.8 °F 53.6 °F 77% 29.78 in 10.0 mi South 11.5 mph 16.1 mph 0.01 in   Overcast
4:15 PM 60.8 °F 53.6 °F 77% 29.77 in 10.0 mi South 12.7 mph - 0.01 in   Overcast
4:35 PM 60.8 °F 53.6 °F 77% 29.77 in 10.0 mi South 10.4 mph - 0.01 in   Overcast
4:55 PM 59.0 °F 53.6 °F 82% 29.76 in 10.0 mi South 11.5 mph - 0.02 in   Overcast
5:15 PM 57.2 °F 53.6 °F 88% 29.76 in 8.0 mi South 17.3 mph 24.2 mph 0.03 in   Mostly Cloudy
5:35 PM 57.2 °F 53.6 °F 88% 29.75 in 9.0 mi South 11.5 mph 16.1 mph 0.06 in   Overcast
5:55 PM 57.2 °F 53.6 °F 88% 29.73 in 7.0 mi South 16.1 mph - 0.10 in   Overcast
6:15 PM 55.4 °F 53.6 °F 94% 29.71 in 9.0 mi SSE 12.7 mph - 0.03 in   Overcast
6:35 PM 55.4 °F 53.6 °F 94% 29.69 in 10.0 mi SSE 19.6 mph 23.0 mph 0.07 in   Overcast
6:55 PM 57.2 °F 53.6 °F 88% 29.68 in 9.0 mi SSE 21.9 mph 28.8 mph 0.12 in   Overcast
7:15 PM 57.2 °F 53.6 °F 88% 29.67 in 9.0 mi South 20.7 mph 27.6 mph 0.05 in   Overcast
7:35 PM 57.2 °F 53.6 °F 88% 29.66 in 9.0 mi South 20.7 mph 32.2 mph 0.09 in   Overcast
7:55 PM 57.2 °F 53.6 °F 88% 29.64 in 10.0 mi South 20.7 mph 29.9 mph 0.13 in   Overcast
8:15 PM 57.2 °F 53.6 °F 88% 29.63 in 10.0 mi South 21.9 mph 33.4 mph 0.02 in   Overcast
8:35 PM 57.2 °F 53.6 °F 88% 29.62 in 10.0 mi South 24.2 mph 32.2 mph 0.03 in   Overcast
8:55 PM 57.2 °F 53.6 °F 88% 29.60 in 10.0 mi South 23.0 mph 27.6 mph 0.05 in   Overcast
9:15 PM 57.2 °F 53.6 °F 88% 29.59 in 10.0 mi South 18.4 mph 31.1 mph 0.02 in   Overcast
9:35 PM 57.2 °F 53.6 °F 88% 29.57 in 10.0 mi South 18.4 mph 27.6 mph 0.03 in   Overcast
9:55 PM 57.2 °F 53.6 °F 88% 29.56 in 10.0 mi South 15.0 mph 24.2 mph 0.03 in   Overcast
10:15 PM 57.2 °F 53.6 °F 88% 29.54 in 10.0 mi South 18.4 mph 25.3 mph 0.01 in   Overcast
10:35 PM 57.2 °F 53.6 °F 88% 29.53 in 10.0 mi SSE 17.3 mph 23.0 mph 0.01 in   Overcast
10:55 PM 57.2 °F 53.6 °F 88% 29.51 in 10.0 mi SSE 20.7 mph 27.6 mph 0.01 in   Overcast
11:15 PM 57.2 °F 53.6 °F 88% 29.50 in 10.0 mi South 19.6 mph 29.9 mph N/A   Overcast
11:35 PM 57.2 °F 53.6 °F 88% 29.47 in 10.0 mi SSE 23.0 mph 27.6 mph 0.01 in   Overcast
11:55 PM 57.2 °F 53.6 °F 88% 29.46 in 10.0 mi South 20.7 mph 28.8 mph 0.02 in   Overcast